Weather History for Portland Troutdale, OR

Change the Weather History Date:

Saturday, March 15, 2014

  Actual Average Record
Temperature  
Mean Temperature 52 °F 47 °F  
Max Temperature 67 °F 56 °F 70 °F (1996)
Min Temperature 37 °F 39 °F 27 °F (1988)
Degree Days  
Heating Degree Days 13 18  
Month to date heating degree days 215 285  
Cooling Degree Days 0 0  
Month to date cooling degree days 0 0  
Growing Degree Days 2 (Base 50)    
Moisture  
Dew Point 42 °F    
Average Humidity 68    
Maximum Humidity 92    
Minimum Humidity 43    
Precipitation  
Precipitation 0.00 in 0.16 in 1.14 in (1967)
Month to date precipitation 2.44 2.27  
Year to date precipitation 8.50 13.54  
Sea Level Pressure  
Sea Level Pressure 30.30 in    
Wind  
Wind Speed 6 mph (SSW)    
Max Wind Speed 15 mph    
Max Gust Speed 19 mph    
Visibility 10 miles    
Events      
T = Trace of Precipitation, MM = Missing Value Source: NWS Daily Summary

Daily Weather History Graph

Daily Weather History Graph

Search for Another Location

Airport:

Trip Planner

Search our weather history database for the weather conditions in past years. The results will help you decide how hot, cold, wet, or windy it might be!

Date:

Astronomy

Mar. 15, 2014 Rise Set
Actual Time 7:21 AM PDT 7:15 PM PDT
Civil Twilight 6:52 AM PDT 7:45 PM PDT
Nautical Twilight 6:18 AM PDT 8:19 PM PDT
Astronomical Twilight 5:42 AM PDT 8:55 PM PDT
Moon 6:40 PM PDT (3/15) 6:38 AM PDT (3/15)
Length of Visible Light 12h 52m
Length of Day
11h 53m
Waxing Gibbous, 99% of the Moon is Illuminated
Mar 15
Waxing Gibbous
Mar 16
Full
Mar 23
Last Quarter
Mar 30
New
Apr 7
First Quarter

Hourly Weather History & Observations

Time (PDT) Temp. Windchill Dew Point Humidity Pressure Visibility Wind Dir Wind Speed Gust Speed Precip Events Conditions
12:53 AM 46.0 °F 44.8 °F 39.9 °F 79% 30.32 in 10.0 mi SSE 3.5 mph - N/A   Clear
1:53 AM 42.1 °F 39.2 °F 37.9 °F 85% 30.32 in 10.0 mi East 4.6 mph - N/A   Partly Cloudy
2:53 AM 39.9 °F 36.7 °F 37.0 °F 89% 30.32 in 10.0 mi East 4.6 mph - N/A   Partly Cloudy
3:53 AM 39.9 °F - 37.0 °F 89% 30.30 in 10.0 mi Calm Calm - N/A   Clear
4:53 AM 37.9 °F - 35.1 °F 89% 30.30 in 10.0 mi Calm Calm - N/A   Clear
5:53 AM 41.0 °F - 37.0 °F 86% 30.31 in 10.0 mi Calm Calm - N/A   Overcast
6:53 AM 43.0 °F 38.2 °F 37.9 °F 82% 30.30 in 10.0 mi SE 8.1 mph - N/A   Overcast
7:53 AM 44.1 °F 42.5 °F 37.9 °F 79% 30.31 in 10.0 mi Variable 3.5 mph - N/A   Overcast
8:53 AM 48.0 °F - 39.0 °F 71% 30.31 in 10.0 mi SE 3.5 mph - N/A   Mostly Cloudy
9:53 AM 50.0 °F - 37.9 °F 63% 30.32 in 10.0 mi Variable 5.8 mph - N/A   Scattered Clouds
10:53 AM 54.0 °F - 39.9 °F 59% 30.32 in 10.0 mi Variable 6.9 mph - N/A   Partly Cloudy
11:53 AM 57.0 °F - 39.0 °F 51% 30.31 in 10.0 mi ENE 5.8 mph - N/A   Clear
12:53 PM 61.0 °F - 39.9 °F 46% 30.32 in 10.0 mi NE 3.5 mph - N/A   Partly Cloudy
1:53 PM 63.0 °F - 39.9 °F 43% 30.30 in 10.0 mi Variable 3.5 mph - N/A   Mostly Cloudy
2:53 PM 64.0 °F - 42.1 °F 45% 30.28 in 10.0 mi WSW 5.8 mph - N/A   Overcast
3:53 PM 66.0 °F - 46.0 °F 48% 30.27 in 10.0 mi WSW 10.4 mph - N/A   Partly Cloudy
4:53 PM 64.9 °F - 46.9 °F 52% 30.25 in 10.0 mi SW 8.1 mph - N/A   Overcast
5:53 PM 64.9 °F - 46.9 °F 52% 30.25 in 10.0 mi SW 12.7 mph - N/A   Overcast
6:53 PM 64.0 °F - 48.9 °F 58% 30.26 in 10.0 mi WSW 8.1 mph - N/A   Overcast
7:53 PM 63.0 °F - 48.0 °F 58% 30.27 in 10.0 mi WSW 10.4 mph - N/A   Overcast
8:53 PM 60.1 °F - 48.9 °F 67% 30.27 in 10.0 mi SW 6.9 mph - N/A   Clear
9:53 PM 60.1 °F - 48.0 °F 64% 30.30 in 10.0 mi West 9.2 mph - N/A   Overcast
10:53 PM 57.0 °F - 46.9 °F 69% 30.30 in 10.0 mi SSW 6.9 mph - N/A   Scattered Clouds
11:53 PM 57.0 °F - 46.9 °F 69% 30.31 in 10.0 mi SSW 3.5 mph - N/A   Overcast